Location: Be?i?
(36.9044°N, 30.1006°E)
Time: 11:37:36
(UTC+00:00)

ATLAS 5 CENTAUR R/B - Pass Details

Date: 05 August 2024
Orbit: 412 x 1157 km, 63.3° (Epoch: 08 September)

Event Time Altitude Azimuth Distance (km) Brightness Sun altitude
Rises 19:22:03 0° 345° (NNW) 2,957 6.0 -24.0°
Reaches altitude 10° 19:25:06 10° 9° (N) 2,196 4.8 -24.4°
Maximum altitude 19:28:10 16° 46° (NE) 1,971 4.1 -24.8°
Enters shadow 19:29:19 15° 60° (ENE) 2,073 4.1 -25.0°
